Weather History for Smithfield, NC

Change the Weather History Date:

Wednesday, November 13, 2013

  Actual Average Record
Temperature  
Mean Temperature 35 °F -  
Max Temperature 44 °F 62 °F 84 °F (1955)
Min Temperature 26 °F 36 °F 23 °F (1976)
Degree Days  
Heating Degree Days 30    
Moisture  
Dew Point 20 °F    
Average Humidity 59    
Maximum Humidity 100    
Minimum Humidity 31    
Precipitation  
Precipitation 0.00 in - - ()
Sea Level Pressure  
Sea Level Pressure 30.47 in    
Wind  
Wind Speed 6 mph (North)    
Max Wind Speed 14 mph    
Max Gust Speed 24 mph    
Visibility 10 miles    
Events      
Averages and records for this station are not official NWS values.
T = Trace of Precipitation, MM = Missing Value Source: NWS Daily Summary

Daily Weather History Graph

Daily Weather History Graph

Search for Another Location

Airport:

Trip Planner

Search our weather history database for the weather conditions in past years. The results will help you decide how hot, cold, wet, or windy it might be!

Date:

Astronomy

Nov. 13, 2013 Rise Set
Actual Time 6:47 AM EST 5:08 PM EST
Civil Twilight 6:20 AM EST 5:35 PM EST
Nautical Twilight 5:49 AM EST 6:05 PM EST
Astronomical Twilight 5:19 AM EST 6:35 PM EST
Moon 2:47 PM EST (11/13) 2:46 AM EST (11/13)
Length of Visible Light 11h 14m
Length of Day
10h 20m
Waxing Gibbous, 84% of the Moon is Illuminated
Nov 13
Waxing Gibbous
Nov 17
Full
Nov 25
Last Quarter
Dec 2
New
Dec 9
First Quarter

Hourly Weather History & Observations

Time (EST) Temp. Windchill Dew Point Humidity Pressure Visibility Wind Dir Wind Speed Gust Speed Precip Events Conditions
12:15 AM 35.6 °F 27.1 °F 19.4 °F 52% 30.41 in 10.0 mi North 12.7 mph 20.7 mph N/A   Clear
12:35 AM 35.6 °F 26.6 °F 17.6 °F 48% 30.41 in 10.0 mi North 13.8 mph 24.2 mph N/A   Clear
12:55 AM 35.6 °F 26.6 °F 17.6 °F 48% 30.41 in 10.0 mi NNE 13.8 mph 18.4 mph N/A   Clear
1:15 AM 33.8 °F 27.0 °F 17.6 °F 52% 30.41 in 10.0 mi North 8.1 mph - N/A   Clear
1:35 AM 33.8 °F 29.6 °F 17.6 °F 52% 30.42 in 10.0 mi North 4.6 mph - N/A   Clear
1:55 AM 32.0 °F 28.7 °F 19.4 °F 60% 30.41 in 10.0 mi North 3.5 mph - N/A   Clear
2:15 AM 32.0 °F 28.7 °F 19.4 °F 60% 30.42 in 10.0 mi North 3.5 mph - N/A   Clear
2:35 AM 32.0 °F 28.7 °F 19.4 °F 60% 30.42 in 10.0 mi North 3.5 mph - N/A   Clear
2:55 AM 32.0 °F 28.7 °F 19.4 °F 60% 30.42 in 10.0 mi North 3.5 mph - N/A   Clear
3:15 AM 32.0 °F 27.5 °F 19.4 °F 60% 30.42 in 10.0 mi North 4.6 mph - N/A   Clear
3:35 AM 32.0 °F 28.7 °F 19.4 °F 60% 30.42 in 10.0 mi North 3.5 mph - N/A   Clear
3:55 AM 32.0 °F 27.5 °F 17.6 °F 55% 30.43 in 10.0 mi North 4.6 mph - N/A   Clear
4:15 AM 32.0 °F 26.4 °F 17.6 °F 55% 30.43 in 10.0 mi North 5.8 mph - N/A   Clear
4:35 AM 32.0 °F 27.5 °F 17.6 °F 55% 30.44 in 10.0 mi NNW 4.6 mph - N/A   Clear
4:55 AM 32.0 °F 27.5 °F 17.6 °F 55% 30.44 in 10.0 mi North 4.6 mph - N/A   Clear
5:15 AM 32.0 °F 28.7 °F 17.6 °F 55% 30.44 in 10.0 mi North 3.5 mph - N/A   Clear
5:35 AM 32.0 °F 27.5 °F 17.6 °F 55% 30.45 in 10.0 mi North 4.6 mph - N/A   Clear
5:55 AM 30.2 °F - 17.6 °F 60% 30.46 in 10.0 mi Calm Calm - N/A   Clear
6:15 AM 30.2 °F 26.7 °F 17.6 °F 60% 30.47 in 10.0 mi NNW 3.5 mph - N/A   Clear
6:35 AM 30.2 °F 25.4 °F 17.6 °F 60% 30.48 in 10.0 mi North 4.6 mph - N/A   Clear
6:55 AM 30.2 °F 26.7 °F 17.6 °F 60% 30.48 in 10.0 mi North 3.5 mph - N/A   Clear
7:15 AM 30.2 °F - 19.4 °F 64% 30.49 in 10.0 mi Calm Calm - N/A   Clear
7:35 AM 32.0 °F - 19.4 °F 60% 30.50 in 10.0 mi Calm Calm - N/A   Clear
7:55 AM 32.0 °F 26.4 °F 19.4 °F 60% 30.50 in 10.0 mi North 5.8 mph - N/A   Clear
8:15 AM 33.8 °F 29.6 °F 19.4 °F 56% 30.51 in 10.0 mi North 4.6 mph - N/A   Clear
8:35 AM 33.8 °F 27.7 °F 19.4 °F 56% 30.52 in 10.0 mi North 6.9 mph - N/A   Clear
8:55 AM 35.6 °F 29.9 °F 19.4 °F 52% 30.52 in 10.0 mi North 6.9 mph - N/A   Clear
9:15 AM 35.6 °F 28.6 °F 19.4 °F 52% 30.52 in 10.0 mi North 9.2 mph 16.1 mph N/A   Clear
9:35 AM 37.4 °F 29.3 °F 19.4 °F 48% 30.52 in 10.0 mi North 12.7 mph 18.4 mph N/A   Clear
9:55 AM 39.2 °F 33.0 °F 19.4 °F 45% 30.52 in 10.0 mi North 9.2 mph 18.4 mph N/A   Clear
10:15 AM 41.0 °F 34.3 °F 17.6 °F 39% 30.52 in 10.0 mi North 11.5 mph 19.6 mph N/A   Clear
10:35 AM 41.0 °F 35.8 °F 17.6 °F 39% 30.52 in 10.0 mi North 8.1 mph 17.3 mph N/A   Scattered Clouds
10:55 AM 41.0 °F 34.7 °F 17.6 °F 39% 30.51 in 10.0 mi North 10.4 mph 23.0 mph N/A   Clear
11:15 AM 41.0 °F 34.3 °F 17.6 °F 39% 30.51 in 10.0 mi North 11.5 mph 19.6 mph N/A   Clear
11:35 AM 42.8 °F 38.0 °F 17.6 °F 36% 30.51 in 10.0 mi North 8.1 mph 17.3 mph N/A   Clear
11:55 AM 42.8 °F 37.0 °F 17.6 °F 36% 30.49 in 10.0 mi North 10.4 mph 18.4 mph N/A   Clear
12:15 PM 42.8 °F 36.2 °F 17.6 °F 36% 30.48 in 10.0 mi NNE 12.7 mph 17.3 mph N/A   Clear
12:35 PM 42.8 °F 36.2 °F 17.6 °F 36% 30.48 in 10.0 mi North 12.7 mph 19.6 mph N/A   Clear
12:55 PM 42.8 °F 38.6 °F 17.6 °F 36% 30.47 in 10.0 mi North 6.9 mph - N/A   Clear
1:15 PM 42.8 °F 39.3 °F 17.6 °F 36% 30.47 in 10.0 mi North 5.8 mph 16.1 mph N/A   Clear
1:35 PM 42.8 °F 37.5 °F 17.6 °F 36% 30.46 in 10.0 mi North 9.2 mph 17.3 mph N/A   Clear
1:55 PM 44.6 °F 40.7 °F 17.6 °F 34% 30.46 in 10.0 mi NNW 6.9 mph - N/A   Clear
2:15 PM 44.6 °F 42.2 °F 17.6 °F 34% 30.46 in 10.0 mi NNW 4.6 mph - N/A   Clear
2:35 PM 44.6 °F 40.2 °F 17.6 °F 34% 30.46 in 10.0 mi North 8.1 mph - N/A   Clear
2:55 PM 44.6 °F 40.2 °F 15.8 °F 31% 30.46 in 10.0 mi North 8.1 mph - N/A   Clear
3:15 PM 44.6 °F 40.2 °F 15.8 °F 31% 30.46 in 10.0 mi North 8.1 mph - N/A   Clear
3:35 PM 44.6 °F 40.2 °F 17.6 °F 34% 30.46 in 10.0 mi North 8.1 mph - N/A   Clear
3:55 PM 44.6 °F - 17.6 °F 34% 30.46 in 10.0 mi Calm Calm - N/A   Clear
4:15 PM 44.6 °F 40.7 °F 17.6 °F 34% 30.46 in 10.0 mi North 6.9 mph - N/A   Clear
4:35 PM 42.8 °F 41.1 °F 17.6 °F 36% 30.47 in 10.0 mi North 3.5 mph - N/A   Clear
4:55 PM 42.8 °F 41.1 °F 17.6 °F 36% 30.47 in 10.0 mi North 3.5 mph - N/A   Clear
5:15 PM 39.2 °F 37.0 °F 17.6 °F 42% 30.47 in 10.0 mi North 3.5 mph - N/A   Clear
5:35 PM 33.8 °F - 23.0 °F 65% 30.48 in 10.0 mi Calm Calm - N/A   Clear
5:55 PM 33.8 °F - 24.8 °F 70% 30.49 in 10.0 mi Calm Calm - N/A   Clear
6:15 PM 32.0 °F - 26.6 °F 80% 30.49 in 10.0 mi Calm Calm - N/A   Clear
6:35 PM 32.0 °F - 24.8 °F 75% 30.49 in 10.0 mi Calm Calm - N/A   Clear
6:55 PM 32.0 °F - 26.6 °F 80% 30.49 in 10.0 mi Calm Calm - N/A   Clear
7:15 PM 30.2 °F - 26.6 °F 86% 30.49 in 10.0 mi Calm Calm - N/A   Clear
7:35 PM 30.2 °F - 26.6 °F 86% 30.49 in 10.0 mi Calm Calm - N/A   Clear
7:55 PM 30.2 °F - 26.6 °F 86% 30.50 in 10.0 mi Calm Calm - N/A   Clear
8:15 PM 28.4 °F - 26.6 °F 93% 30.50 in 10.0 mi Calm Calm - N/A   Clear
8:35 PM 28.4 °F - 24.8 °F 86% 30.49 in 10.0 mi Calm Calm - N/A   Clear
8:55 PM 28.4 °F - 26.6 °F 93% 30.49 in 10.0 mi Calm Calm - N/A   Clear
9:15 PM 28.4 °F - 26.6 °F 93% 30.49 in 10.0 mi Calm Calm - N/A   Clear
9:35 PM 28.4 °F - 24.8 °F 86% 30.49 in 10.0 mi Calm Calm - N/A   Clear
9:55 PM 26.6 °F - 26.6 °F 100% 30.49 in 10.0 mi Calm Calm - N/A   Clear
10:15 PM 26.6 °F - 24.8 °F 93% 30.48 in 10.0 mi Calm Calm - N/A   Clear
10:35 PM 26.6 °F - 24.8 °F 93% 30.48 in 10.0 mi Calm Calm - N/A   Clear
10:55 PM 26.6 °F - 26.6 °F 100% 30.48 in 10.0 mi Calm Calm - N/A   Clear
11:15 PM 26.6 °F - 24.8 °F 93% 30.48 in 10.0 mi Calm Calm - N/A   Clear
11:35 PM 26.6 °F - 26.6 °F 100% 30.48 in 10.0 mi Calm Calm - N/A   Clear
11:55 PM 26.6 °F - 24.8 °F 93% 30.48 in 10.0 mi Calm Calm - N/A   Clear